Tracking 35275 objects as of 9-Sep-2026
HD Live streaming from Space Station
objects crossing your sky now

SL-6 PLAT


SL-6 PLAT is no longer on orbit


NORAD ID: 13072
Int'l Code: 1982-015C
Launch date: February 26, 1982
Source: Commonwealth of Independent States (former USSR) (CIS)
Launch site: PLESETSK MISSILE AND SPACE COMPLEX (PKMTR)
Decay date: 1982-03-13
Your satellite tracking list
Your tracking list is empty




NASA's NSSDC Master Catalog

Two Line Element Set (TLE):
1 13072U 82015  C 82072.59074340  .15533074 +40055-4 +23441-3 0  9993
2 13072 062.8256 351.1569 0031647 120.9963 239.4060 16.45133724002355
Source of the keplerian elements: AFSPC